OpenBCM V2.0.2 (Linux)

Packet Radio Mailbox

IZ3LSV

[San Dona' di P. JN]

 Login: GUEST





  
LU9DCE > KEPS     20.03.18 18:11l 261 Lines 12948 Bytes #999 (0) @ WW
BID : 34678_LU9DCE
Read: GUEST
Subj: SAT TLE OF 20
Path: IZ3LSV<IW8PGT<LU4ECL<LU9DCE
Sent: 180320/1601Z @:LU9DCE.TOR.BA.ARG.SOAM #:34678 [TORTUGUITAS] FBB7.07
From: LU9DCE@LU9DCE.TOR.BA.ARG.SOAM
To  : KEPS@WW


            __    _  _  ___  ____   ___  ____    ____  ____  ____
           (  )  / )( \/ _ \(    \ / __)(  __)  (  _ \(  _ \/ ___)
           / (_/\) \/ (\__  )) D (( (__  ) _)    ) _ ( ) _ (\___ \
           \____/\____/(___/(____/ \___)(____)  (____/(____/(____/
               ESTACION DE PACKET RADIO - BUENOS AIRES (GF05OM)
                   BOLETINES INFORMATIVOS PROGRAMADOS (BIP)
                    LU9DCE@GMX.COM - RF 147070 @ 1200 BAUD
                           telnet lu9dce.dynu.com
             BBS port 6300 / NODE port 3694 / DXCLUSTER port 9000

+------------------------------------------------------------------------------+
OSCAR 7
1 07530U 74089B   18078.56707675 -.00000041  00000-0  19417-4 0  9992
2 07530 101.6768  47.2702 0012224 147.2503 323.3549 12.53631590983364
OSCAR 11 (UoSAT 2)
1 14781U 84021B   18079.54411346  .00000111  00000-0  19834-4 0  9991
2 14781  97.6609 119.4871 0008943  23.7230 336.4395 14.82988381831302
OSCAR 19 (LUSAT)
1 20442U 90005G   18078.41275532  .00000007  00000-0  18679-4 0  9991
2 20442  98.6032  17.4932 0012768  58.1271 302.1154 14.32889497471032
KITSAT B
1 22825U 93061C   18078.52131481 -.00000007 +00000-0 +15122-4 0  9990
2 22825 098.8534 053.0580 0007400 245.5830 114.4580 14.30024440276489
POSAT 1
1 22826U 93061D   18078.90864383  .00000000  00000-0  17747-4 0  9994
2 22826  98.8475  53.5008 0008018 233.0397 127.0051 14.30355572276992
RADIO ROSTO
1 23439U 94085A   18078.58655679 -.00000042 +00000-0 +26512-4 0  9999
2 23439 064.8148 133.7454 0160310 198.2012 277.0734 11.27566587956463
JAS 2
1 24278U 96046B   18078.53448919 -.00000002  00000-0  34971-4 0  9996
2 24278  98.5258 289.5997 0350128 343.6983  15.3120 13.53082185 66118
TECHSAT 1B
1 25397U 98043D   18079.40584831  .00000001  00000-0  19480-4 0  9995
2 25397  98.6421  21.3519 0000268 330.7898  29.3265 14.23641695 23095
ISS (ZARYA)
1 25544U 98067A   18079.55367561  .00001808  00000-0  34540-4 0  9990
2 25544  51.6408 100.5701 0001894 222.3858 275.2955 15.54117925104732
PCSAT
1 26931U 01043C   18079.21157767 -.00000036  00000-0  17986-4 0  9995
2 26931  67.0498  98.9938 0006586 282.9361  77.1005 14.30497576859827
SAUDISAT 1C
1 27607U 02058C   18079.28510764  .00000069  00000-0  30579-4 0  9998
2 27607  64.5571   1.7725 0054885 349.1534  10.8380 14.75430281819848
CUTE-1
1 27844U 03031E   18078.88527356  .00000060  00000-0  46648-4 0  9998
2 27844  98.6893  88.8497 0008630 269.8633  90.1556 14.22100526763508
CUBESAT XI 4
1 27848U 03031J   18079.52357053  .00000036  00000-0  36369-4 0  9991
2 27848  98.6982  89.8462 0008534 279.2460  80.7752 14.21706267763461
MOZHAYETS 4
1 27939U 03042A   18079.55680765  .00000169  00000-0  38855-4 0  9995
2 27939  97.9750 221.0552 0014243  72.1908 356.8011 14.66666863773820
CUBESAT XI 5
1 28895U 05043F   18078.98689935  .00000153  00000-0  38199-4 0  9998
2 28895  97.8951 234.1214 0016562 356.3184   3.7895 14.63520173660826
CUTE-1.7+APD II
1 32785U 08021C   18079.15495929  .00000291  00000-0  37284-4 0  9995
2 32785  97.5519  95.5650 0012445 340.3656  19.7081 14.88079442535934
DELFI C3
1 32789U 08021G   18079.40858494  .00001520  00000-0  10883-3 0  9998
2 32789  97.5231 136.4321 0011167 235.4838 124.5336 15.05836105538427
SEEDS
1 32791U 08021J   18079.11975374  .00000444  00000-0  50896-4 0  9999
2 32791  97.5429 100.6818 0012291 320.4558  39.5762 14.90492485536244
YUBELEINY
1 32953U 08025A   18079.50649722 -.00000001  00000-0 -79915-4 0  9995
2 32953  82.5003  67.8250 0020123  45.8117 314.4612 12.43082317445751
PRISM (HITOMI)
1 33493U 09002B   18079.48768207  .00001024  00000-0  96561-4 0  9998
2 33493  98.1401 338.1372 0013583 250.9139 109.0569 14.96122843497081
KKS-1 (KISEKI)
1 33499U 09002H   18079.19581058  .00000134  00000-0  27830-4 0  9993
2 33499  98.3520 258.0863 0008573 209.1255 150.9476 14.75304785492052
SWISSCUBE
1 35932U 09051B   18078.97026362  .00000155  00000-0  46050-4 0  9996
2 35932  98.5307 228.0542 0008793 121.0811 239.1250 14.56132097450458
BEESAT
1 35933U 09051C   18078.52295153  .00000134  00000-0  41169-4 0  9997
2 35933  98.5349 229.0866 0006812 132.3291 227.8484 14.56239043450498
ITUPSAT 1
1 35935U 09051E   18079.35214276  .00000104  00000-0  35017-4 0  9990
2 35935  98.5460 230.1889 0009203 127.1501 233.0537 14.55419506450407
XIWANG-1 (HOPE-1)
1 36122U 09072B   18079.54267508 -.00000026  00000-0  42633-4 0  9995
2 36122 100.0818  98.3040 0007015 321.4570  38.6042 13.16343834396987
TISAT 1
1 36799U 10035E   18078.84589847  .00000730  00000-0  80329-4 0  9996
2 36799  98.0915 212.7753 0013349 137.9463 222.2782 14.90725542416845
JUGNU
1 37839U 11058B   18079.47994047  .00000327  00000-0  32581-4 0  9999
2 37839  19.9605 215.1514 0019064 349.1611  65.2017 14.12612765332819
SRMSAT
1 37841U 11058D   18078.88799615  .00000314  00000-0  27605-4 0  9997
2 37841  19.9716 266.1051 0011822 229.6514 242.6563 14.10601079332254
M-CUBED/EXP-1 PRIME
1 37855U 11061F   18078.88184981  .00002224  00000-0  12133-3 0  9991
2 37855 101.7248  95.7117 0177185 346.5531  13.0991 15.04182960348227
HORYU 2
1 38340U 12025D   18079.10439758  .00000234  00000-0  42419-4 0  9993
2 38340  98.3729  97.7394 0012608 130.7480 229.4825 14.75514521313977
STRAND 1
1 39090U 13009E   18078.51276198  .00000056  00000-0  35024-4 0  9996
2 39090  98.5305 286.0178 0008790 197.0380 163.0511 14.35015462264962
SOMP
1 39134U 13015E   18079.19098272  .00002079  00000-0  10821-3 0  9996
2 39134  64.8656  54.7402 0021367 221.8196 138.1299 15.18912143271386
BEESAT 3
1 39135U 13015F   18079.39797344  .00001785  00000-0  10060-3 0  9993
2 39135  64.8685  66.2867 0026566 246.7664 113.0664 15.16473562271185
BEESAT 2
1 39136U 13015G   18079.20479079  .00001657  00000-0  95465-4 0  9997
2 39136  64.8688  69.4569 0027221 246.0672 113.7602 15.15949804271101
CUBEBUG 1
1 39153U 13018D   18079.49370612  .00000292  00000-0  45225-4 0  9996
2 39153  97.9769 175.2748 0015968 230.3393 129.6411 14.80356674264466
ZACUBE
1 39417U 13066B   18078.58555763 +.00000320 +00000-0 +46624-4 0  9999
2 39417 097.5973 111.9636 0060705 088.8301 271.9866 14.80892583233532
TRITON 1
1 39427U 13066M   18079.05607111  .00000179  00000-0  36541-4 0  9997
2 39427  97.6394  80.9044 0114029 184.2069 175.8190 14.67623525231500
GOMX 1
1 39430U 13066Q   18079.49439424  .00000200  00000-0  45674-4 0  9991
2 39430  97.6900  62.8002 0150219 250.3739 108.1196 14.59040356230218
HUMSAT D
1 39433U 13066T   18078.83215065  .00000688  00000-0  73081-4 0  9997
2 39433  97.6151 138.2908 0031425  22.9858 337.2760 14.91778746235106
50 SAT
1 39436U 13066W   18079.40433531  .00160671  00000-0  15691-2 0  9994
2 39436  97.7127 208.7122 0003949 199.0190 161.0922 15.65659454239382
CUBEBUG 2
1 39440U 13066AA  18078.63420600  .00000271  00000-0  44546-4 0  9998
2 39440  97.6075  99.1657 0081857 125.8014 235.0840 14.75627311232717
FUNCUBE 1
1 39444U 13066AE  18079.03342971  .00000365  00000-0  51389-4 0  9998
2 39444  97.5983 113.7999 0059825  83.2735 277.5282 14.81660554232452
UWE-3
1 39446U 13066AG  18078.60723581 +.00000301 +00000-0 +46601-4 0  9993
2 39446 097.6010 105.1936 0071781 107.6413 253.2654 14.78160974231293
SPROUT
1 39770U 14029E   18079.55569054  .00001003  00000-0  11884-3 0  9995
2 39770  97.8717 181.3755 0010373 133.9774 226.2296 14.86724788207198
UNISAT 6
1 40012U 14033C   18079.20676553  .00000259  00000-0  46083-4 0  9998
2 40012  97.8216 318.7095 0059598 125.0770 235.6048 14.73778620201593
DUCHIFAT 1
1 40021U 14033M   18078.82546642  .00000506  00000-0  57977-4 0  9999
2 40021  97.9174 357.3838 0014339 110.4019 249.8740 14.90227750203645
QB50P1
1 40025U 14033R   18079.22285518  .00000406  00000-0  49522-4 0  9996
2 40025  97.9080 354.7951 0013803 114.7194 245.5461 14.88657940203556
CHUBUSAT 1
1 40300U 14070C   18079.50430902  .00001068  00000-0  50418-4 0  9994
2 40300  97.3700 159.0790 0019312 209.5022 245.7582 15.21435449186794
NUDT-PHONESAT
1 40900U 15049B   18079.49912845  .00003476  00000-0  15993-3 0  9999
2 40900  97.4432  88.7897 0013004 347.5183  12.5729 15.20932775138436
ZDPS 2A
1 40901U 15049C   18079.49194428  .00001352  00000-0  71853-4 0  9998
2 40901  97.4604  87.2288 0013482 353.4040   6.7014 15.16921086138210
ZDPS 2B
1 40902U 15049D   18079.51974048  .00001283  00000-0  68747-4 0  9997
2 40902  97.4496  85.4261 0013450 350.3000   9.7971 15.16723003138201
XW-2A
1 40903U 15049E   18079.50154999  .00002853  00000-0  73143-4 0  9992
2 40903  97.3945 113.4425 0014076 357.7121   2.4058 15.40137939140151
KAITUO 1A
1 40904U 15049F   18079.57608238  .00000543  00000-0  32619-4 0  9997
2 40904  97.4584  84.8201 0014733 352.4735 122.7270 15.14921490138083
OBJECT G
1 40905U 15049G   18079.51611522  .00000622  00000-0  37899-4 0  9995
2 40905  97.4586  82.9853 0015299 343.5877  16.4858 15.13890501138004
XW-2C
1 40906U 15049H   18079.49086549  .00000997  00000-0  56736-4 0  9994
2 40906  97.4604  84.6154 0014546 343.7943  16.2822 15.15065679138066
XW-2D
1 40907U 15049J   18079.51793175  .00001065  00000-0  60122-4 0  9999
2 40907  97.4577  84.3500 0013839 341.7849  18.2886 15.15207213138070
LILACSAT 2
1 40908U 15049K   18079.48510187  .00000585  00000-0  36292-4 0  9993
2 40908  97.4686  83.7892 0015494 342.0752  17.9931 15.13436460137954
XW-2F
1 40910U 15049M   18079.53452707  .00001581  00000-0  84828-4 0  9990
2 40910  97.4584  85.5217 0014454 337.5342  22.5257 15.16337713138020
XW-2B
1 40911U 15049N   18079.53225189  .00001024  00000-0  58038-4 0  9999
2 40911  97.4614  84.8676 0013764 342.3099  17.7652 15.15154443137976
